owner,sensor,date,latitude,longitude,vertical_datum,sea_water_temperature,qcFlag 
TABS,ioos:station:wmo:42043:1,1999-02-01T20:30:00Z,28.9818,-94.9186,-2.0,16.84,11111222 
TABS,ioos:station:wmo:42043:1,1999-02-01T21:00:00Z,28.9818,-94.9186,-2.0,16.91,11111222 
TABS,ioos:station:wmo:42043:1,1999-02-01T21:30:00Z,28.9818,-94.9186,-2.0,16.99,11111222 
TABS,ioos:station:wmo:42043:1,1999-02-01T22:00:00Z,28.9818,-94.9186,-2.0,17.05,11111222 
TABS,ioos:station:wmo:42043:1,1999-02-01T22:30:00Z,28.9818,-94.9186,-2.0,17.04,11111222 
TABS,ioos:station:wmo:42043:1,1999-02-01T23:00:00Z,28.9818,-94.9186,-2.0,17.02,11111222 
TABS,ioos:station:wmo:42043:1,1999-02-01T23:30:00Z,28.9818,-94.9186,-2.0,16.98,11111222 
TABS,ioos:station:wmo:42043:1,1999-02-02T00:00:00Z,28.9818,-94.9186,-2.0,16.97,11111222 
TABS,ioos:station:wmo:42043:1,1999-02-02T00:30:00Z,28.9818,-94.9186,-2.0,16.95,11111222 
TABS,ioos:station:wmo:42043:1,1999-02-02T01:00:00Z,28.9818,-94.9186,-2.0,16.92,11111222 
TABS,ioos:station:wmo:42043:1,1999-02-02T01:30:00Z,28.9818,-94.9186,-2.0,16.92,11111222 
TABS,ioos:station:wmo:42043:1,1999-02-02T02:00:00Z,28.9818,-94.9186,-2.0,16.89,11111222 
TABS,ioos:station:wmo:42043:1,1999-02-02T02:30:00Z,28.9818,-94.9186,-2.0,16.88,11111222 
TABS,ioos:station:wmo:42043:1,1999-02-02T03:00:00Z,28.9818,-94.9186,-2.0,16.87,11111222 
TABS,ioos:station:wmo:42043:1,1999-02-02T03:30:00Z,28.9818,-94.9186,-2.0,16.86,11111222 
TABS,ioos:station:wmo:42043:1,1999-02-02T04:00:00Z,28.9818,-94.9186,-2.0,16.85,11111222 
TABS,ioos:station:wmo:42043:1,1999-02-02T04:30:00Z,28.9818,-94.9186,-2.0,16.86,11111222 
TABS,ioos:station:wmo:42043:1,1999-02-02T05:00:00Z,28.9818,-94.9186,-2.0,16.85,11111222 
TABS,ioos:station:wmo:42043:1,1999-02-02T05:30:00Z,28.9818,-94.9186,-2.0,16.86,11111222 
TABS,ioos:station:wmo:42043:1,1999-02-02T06:00:00Z,28.9818,-94.9186,-2.0,16.87,11111222 
TABS,ioos:station:wmo:42043:1,1999-02-02T06:30:00Z,28.9818,-94.9186,-2.0,16.87,11111222 
TABS,ioos:station:wmo:42043:1,1999-02-02T07:00:00Z,28.9818,-94.9186,-2.0,16.87,11111222 
TABS,ioos:station:wmo:42043:1,1999-02-02T07:30:00Z,28.9818,-94.9186,-2.0,16.88,11111222 
TABS,ioos:station:wmo:42043:1,1999-02-02T08:00:00Z,28.9818,-94.9186,-2.0,16.89,11111222 
TABS,ioos:station:wmo:42043:1,1999-02-02T08:30:00Z,28.9818,-94.9186,-2.0,16.89,11111222 
TABS,ioos:station:wmo:42043:1,1999-02-02T09:00:00Z,28.9818,-94.9186,-2.0,16.89,11111222 
TABS,ioos:station:wmo:42043:1,1999-02-02T09:30:00Z,28.9818,-94.9186,-2.0,16.91,11111222 
TABS,ioos:station:wmo:42043:1,1999-02-02T10:00:00Z,28.9818,-94.9186,-2.0,16.91,11111222 
TABS,ioos:station:wmo:42043:1,1999-02-02T10:30:00Z,28.9818,-94.9186,-2.0,16.91,11111222 
TABS,ioos:station:wmo:42043:1,1999-02-02T11:00:00Z,28.9818,-94.9186,-2.0,16.91,11111222 
TABS,ioos:station:wmo:42043:1,1999-02-02T11:30:00Z,28.9818,-94.9186,-2.0,16.91,11111222 
TABS,ioos:station:wmo:42043:1,1999-02-02T12:00:00Z,28.9818,-94.9186,-2.0,16.93,11111222 
TABS,ioos:station:wmo:42043:1,1999-02-02T12:30:00Z,28.9818,-94.9186,-2.0,16.93,11111222 
TABS,ioos:station:wmo:42043:1,1999-02-02T13:00:00Z,28.9818,-94.9186,-2.0,16.95,11111222 
TABS,ioos:station:wmo:42043:1,1999-02-02T13:30:00Z,28.9818,-94.9186,-2.0,16.97,11111222 
TABS,ioos:station:wmo:42043:1,1999-02-02T14:00:00Z,28.9818,-94.9186,-2.0,16.94,11111222 
TABS,ioos:station:wmo:42043:1,1999-02-02T14:30:00Z,28.9818,-94.9186,-2.0,16.92,11111222 
TABS,ioos:station:wmo:42043:1,1999-02-02T15:00:00Z,28.9818,-94.9186,-2.0,16.91,11111222 
TABS,ioos:station:wmo:42043:1,1999-02-02T15:30:00Z,28.9818,-94.9186,-2.0,16.91,11111222 
TABS,ioos:station:wmo:42043:1,1999-02-02T16:00:00Z,28.9818,-94.9186,-2.0,16.92,11111222 
TABS,ioos:station:wmo:42043:1,1999-02-02T16:30:00Z,28.9818,-94.9186,-2.0,16.91,11111222 
TABS,ioos:station:wmo:42043:1,1999-02-02T17:00:00Z,28.9818,-94.9186,-2.0,16.91,11111222 
TABS,ioos:station:wmo:42043:1,1999-02-02T17:30:00Z,28.9818,-94.9186,-2.0,16.92,11111222 
TABS,ioos:station:wmo:42043:1,1999-02-02T18:00:00Z,28.9818,-94.9186,-2.0,16.94,11111222 
TABS,ioos:station:wmo:42043:1,1999-02-02T18:30:00Z,28.9818,-94.9186,-2.0,16.97,11111222 
TABS,ioos:station:wmo:42043:1,1999-02-02T19:00:00Z,28.9818,-94.9186,-2.0,17.0,11111222 
TABS,ioos:station:wmo:42043:1,1999-02-02T19:30:00Z,28.9818,-94.9186,-2.0,17.01,11111222 
TABS,ioos:station:wmo:42043:1,1999-02-02T20:00:00Z,28.9818,-94.9186,-2.0,17.01,11111222 
TABS,ioos:station:wmo:42043:1,1999-02-04T00:30:00Z,28.9818,-94.9186,-2.0,17.45,11111222 
TABS,ioos:station:wmo:42043:1,1999-02-04T01:00:00Z,28.9818,-94.9186,-2.0,17.48,11111222 
TABS,ioos:station:wmo:42043:1,1999-02-04T01:30:00Z,28.9818,-94.9186,-2.0,17.5,11111222 
TABS,ioos:station:wmo:42043:1,1999-02-04T02:00:00Z,28.9818,-94.9186,-2.0,17.47,11111222 
TABS,ioos:station:wmo:42043:1,1999-02-04T02:30:00Z,28.9818,-94.9186,-2.0,17.36,11111222 
TABS,ioos:station:wmo:42043:1,1999-02-04T03:00:00Z,28.9818,-94.9186,-2.0,17.32,11111222 
TABS,ioos:station:wmo:42043:1,1999-02-04T03:30:00Z,28.9818,-94.9186,-2.0,17.34,11111222 
TABS,ioos:station:wmo:42043:1,1999-02-04T04:00:00Z,28.9818,-94.9186,-2.0,17.32,11111222 
TABS,ioos:station:wmo:42043:1,1999-02-04T04:30:00Z,28.9818,-94.9186,-2.0,17.32,11111222 
TABS,ioos:station:wmo:42043:1,1999-02-04T05:00:00Z,28.9818,-94.9186,-2.0,17.28,11111222 
TABS,ioos:station:wmo:42043:1,1999-02-04T05:30:00Z,28.9818,-94.9186,-2.0,17.27,11111222 
TABS,ioos:station:wmo:42043:1,1999-02-04T06:00:00Z,28.9818,-94.9186,-2.0,17.19,11111222 
TABS,ioos:station:wmo:42043:1,1999-02-04T06:30:00Z,28.9818,-94.9186,-2.0,17.08,11111222 
TABS,ioos:station:wmo:42043:1,1999-02-04T07:00:00Z,28.9818,-94.9186,-2.0,17.14,11111222 
TABS,ioos:station:wmo:42043:1,1999-02-04T07:30:00Z,28.9818,-94.9186,-2.0,17.07,11111222 
TABS,ioos:station:wmo:42043:1,1999-02-04T08:00:00Z,28.9818,-94.9186,-2.0,17.11,11111222 
TABS,ioos:station:wmo:42043:1,1999-02-04T08:30:00Z,28.9818,-94.9186,-2.0,17.08,11111222 
TABS,ioos:station:wmo:42043:1,1999-02-04T09:00:00Z,28.9818,-94.9186,-2.0,17.01,11111222 
TABS,ioos:station:wmo:42043:1,1999-02-04T09:30:00Z,28.9818,-94.9186,-2.0,17.05,11111222 
TABS,ioos:station:wmo:42043:1,1999-02-04T10:00:00Z,28.9818,-94.9186,-2.0,17.1,11111222 
TABS,ioos:station:wmo:42043:1,1999-02-04T10:30:00Z,28.9818,-94.9186,-2.0,17.11,11111222 
TABS,ioos:station:wmo:42043:1,1999-02-04T11:00:00Z,28.9818,-94.9186,-2.0,16.98,11111222 
TABS,ioos:station:wmo:42043:1,1999-02-04T11:30:00Z,28.9818,-94.9186,-2.0,16.86,11111222 
TABS,ioos:station:wmo:42043:1,1999-02-04T12:00:00Z,28.9818,-94.9186,-2.0,16.89,11111222 
TABS,ioos:station:wmo:42043:1,1999-02-04T12:30:00Z,28.9818,-94.9186,-2.0,16.82,11111222 
TABS,ioos:station:wmo:42043:1,1999-02-04T13:00:00Z,28.9818,-94.9186,-2.0,16.86,11111222 
TABS,ioos:station:wmo:42043:1,1999-02-04T13:30:00Z,28.9818,-94.9186,-2.0,16.9,11111222 
TABS,ioos:station:wmo:42043:1,1999-02-04T14:00:00Z,28.9818,-94.9186,-2.0,17.15,11111222 
TABS,ioos:station:wmo:42043:1,1999-02-04T14:30:00Z,28.9818,-94.9186,-2.0,17.23,11111222 
TABS,ioos:station:wmo:42043:1,1999-02-04T15:00:00Z,28.9818,-94.9186,-2.0,17.25,11111222 
TABS,ioos:station:wmo:42043:1,1999-02-04T15:30:00Z,28.9818,-94.9186,-2.0,17.28,11111222 
TABS,ioos:station:wmo:42043:1,1999-02-04T16:00:00Z,28.9818,-94.9186,-2.0,17.28,11111222 
TABS,ioos:station:wmo:42043:1,1999-02-04T16:30:00Z,28.9818,-94.9186,-2.0,17.32,11111222 
TABS,ioos:station:wmo:42043:1,1999-02-04T17:00:00Z,28.9818,-94.9186,-2.0,17.31,11111222 
TABS,ioos:station:wmo:42043:1,1999-02-04T17:30:00Z,28.9818,-94.9186,-2.0,17.32,11111222 
TABS,ioos:station:wmo:42043:1,1999-02-04T18:00:00Z,28.9818,-94.9186,-2.0,17.34,11111222 
TABS,ioos:station:wmo:42043:1,1999-02-04T18:30:00Z,28.9818,-94.9186,-2.0,17.34,11111222 
TABS,ioos:station:wmo:42043:1,1999-02-04T19:00:00Z,28.9818,-94.9186,-2.0,17.36,11111222 
TABS,ioos:station:wmo:42043:1,1999-02-04T19:30:00Z,28.9818,-94.9186,-2.0,17.35,11111222 
TABS,ioos:station:wmo:42043:1,1999-02-04T20:00:00Z,28.9818,-94.9186,-2.0,17.32,11111222 
TABS,ioos:station:wmo:42043:1,1999-02-04T20:30:00Z,28.9818,-94.9186,-2.0,17.33,11111222 
TABS,ioos:station:wmo:42043:1,1999-02-04T21:00:00Z,28.9818,-94.9186,-2.0,17.34,11111222 
TABS,ioos:station:wmo:42043:1,1999-02-04T21:30:00Z,28.9818,-94.9186,-2.0,17.31,11111222 
TABS,ioos:station:wmo:42043:1,1999-02-04T22:00:00Z,28.9818,-94.9186,-2.0,17.31,11111222 
TABS,ioos:station:wmo:42043:1,1999-02-04T22:30:00Z,28.9818,-94.9186,-2.0,17.32,11111222 
TABS,ioos:station:wmo:42043:1,1999-02-04T23:00:00Z,28.9818,-94.9186,-2.0,17.33,11111222 
TABS,ioos:station:wmo:42043:1,1999-02-04T23:30:00Z,28.9818,-94.9186,-2.0,17.25,11111222 
TABS,ioos:station:wmo:42043:1,1999-02-05T00:00:00Z,28.9818,-94.9186,-2.0,17.27,11111222 
TABS,ioos:station:wmo:42043:1,1999-02-05T00:30:00Z,28.9818,-94.9186,-2.0,17.24,11111222 
TABS,ioos:station:wmo:42043:1,1999-02-05T01:00:00Z,28.9818,-94.9186,-2.0,17.22,11111222 
TABS,ioos:station:wmo:42043:1,1999-02-05T01:30:00Z,28.9818,-94.9186,-2.0,17.21,11111222 
TABS,ioos:station:wmo:42043:1,1999-02-05T02:00:00Z,28.9818,-94.9186,-2.0,17.21,11111222 
TABS,ioos:station:wmo:42043:1,1999-02-13T06:30:00Z,28.9818,-94.9186,-2.0,17.66,11111222 
TABS,ioos:station:wmo:42043:1,1999-02-13T07:00:00Z,28.9818,-94.9186,-2.0,17.69,11111222 
TABS,ioos:station:wmo:42043:1,1999-02-13T07:30:00Z,28.9818,-94.9186,-2.0,17.33,11111222 
TABS,ioos:station:wmo:42043:1,1999-02-13T08:00:00Z,28.9818,-94.9186,-2.0,17.37,11111222 
TABS,ioos:station:wmo:42043:1,1999-02-13T08:30:00Z,28.9818,-94.9186,-2.0,17.42,11111222 
TABS,ioos:station:wmo:42043:1,1999-02-13T09:00:00Z,28.9818,-94.9186,-2.0,17.46,11111222 
TABS,ioos:station:wmo:42043:1,1999-02-13T09:30:00Z,28.9818,-94.9186,-2.0,17.48,11111222 
TABS,ioos:station:wmo:42043:1,1999-02-13T10:00:00Z,28.9818,-94.9186,-2.0,17.51,11111222 
TABS,ioos:station:wmo:42043:1,1999-02-13T10:30:00Z,28.9818,-94.9186,-2.0,17.49,11111222 
TABS,ioos:station:wmo:42043:1,1999-02-13T11:00:00Z,28.9818,-94.9186,-2.0,17.54,11111222 
TABS,ioos:station:wmo:42043:1,1999-02-13T11:30:00Z,28.9818,-94.9186,-2.0,17.59,11111222 
TABS,ioos:station:wmo:42043:1,1999-02-13T12:00:00Z,28.9818,-94.9186,-2.0,17.63,11111222 
TABS,ioos:station:wmo:42043:1,1999-02-13T12:30:00Z,28.9818,-94.9186,-2.0,17.69,11111222 
TABS,ioos:station:wmo:42043:1,1999-02-13T13:00:00Z,28.9818,-94.9186,-2.0,17.62,11111222 
TABS,ioos:station:wmo:42043:1,1999-02-13T13:30:00Z,28.9818,-94.9186,-2.0,17.42,11111222 
TABS,ioos:station:wmo:42043:1,1999-02-13T14:00:00Z,28.9818,-94.9186,-2.0,17.36,11111222 
TABS,ioos:station:wmo:42043:1,1999-02-13T14:30:00Z,28.9818,-94.9186,-2.0,17.43,11111222 
TABS,ioos:station:wmo:42043:1,1999-02-13T15:00:00Z,28.9818,-94.9186,-2.0,17.28,11111222 
TABS,ioos:station:wmo:42043:1,1999-02-13T15:30:00Z,28.9818,-94.9186,-2.0,17.17,11111222 
TABS,ioos:station:wmo:42043:1,1999-02-13T16:00:00Z,28.9818,-94.9186,-2.0,17.19,11111222 
TABS,ioos:station:wmo:42043:1,1999-02-13T16:30:00Z,28.9818,-94.9186,-2.0,17.28,11111222 
TABS,ioos:station:wmo:42043:1,1999-02-13T17:00:00Z,28.9818,-94.9186,-2.0,17.37,11111222 
TABS,ioos:station:wmo:42043:1,1999-02-13T17:30:00Z,28.9818,-94.9186,-2.0,17.46,11111222 
TABS,ioos:station:wmo:42043:1,1999-02-13T18:00:00Z,28.9818,-94.9186,-2.0,17.55,11111222 
TABS,ioos:station:wmo:42043:1,1999-02-13T18:30:00Z,28.9818,-94.9186,-2.0,17.62,11111222 
TABS,ioos:station:wmo:42043:1,1999-02-13T19:00:00Z,28.9818,-94.9186,-2.0,17.69,11111222 
TABS,ioos:station:wmo:42043:1,1999-02-13T19:30:00Z,28.9818,-94.9186,-2.0,17.78,11111222 
TABS,ioos:station:wmo:42043:1,1999-02-13T20:00:00Z,28.9818,-94.9186,-2.0,17.81,11111222 
TABS,ioos:station:wmo:42043:1,1999-02-13T20:30:00Z,28.9818,-94.9186,-2.0,17.9,11111222 
TABS,ioos:station:wmo:42043:1,1999-02-13T21:00:00Z,28.9818,-94.9186,-2.0,17.79,11111222 
TABS,ioos:station:wmo:42043:1,1999-02-13T21:30:00Z,28.9818,-94.9186,-2.0,17.99,11111222 
TABS,ioos:station:wmo:42043:1,1999-02-13T22:00:00Z,28.9818,-94.9186,-2.0,18.13,11111222 
TABS,ioos:station:wmo:42043:1,1999-02-13T22:30:00Z,28.9818,-94.9186,-2.0,18.05,11111222 
TABS,ioos:station:wmo:42043:1,1999-02-13T23:00:00Z,28.9818,-94.9186,-2.0,17.89,11111222 
TABS,ioos:station:wmo:42043:1,1999-02-13T23:30:00Z,28.9818,-94.9186,-2.0,17.86,11111222 
TABS,ioos:station:wmo:42043:1,1999-02-14T00:00:00Z,28.9818,-94.9186,-2.0,17.81,11111222 
TABS,ioos:station:wmo:42043:1,1999-02-14T00:30:00Z,28.9818,-94.9186,-2.0,17.79,11111222 
TABS,ioos:station:wmo:42043:1,1999-02-14T01:00:00Z,28.9818,-94.9186,-2.0,17.73,11111222 
TABS,ioos:station:wmo:42043:1,1999-02-14T01:30:00Z,28.9818,-94.9186,-2.0,17.68,11111222 
TABS,ioos:station:wmo:42043:1,1999-02-14T02:00:00Z,28.9818,-94.9186,-2.0,17.67,11111222 
TABS,ioos:station:wmo:42043:1,1999-02-14T02:30:00Z,28.9818,-94.9186,-2.0,17.67,11111222 
TABS,ioos:station:wmo:42043:1,1999-02-14T03:00:00Z,28.9818,-94.9186,-2.0,17.64,11111222 
TABS,ioos:station:wmo:42043:1,1999-02-14T03:30:00Z,28.9818,-94.9186,-2.0,17.64,11111222 
TABS,ioos:station:wmo:42043:1,1999-02-14T04:00:00Z,28.9818,-94.9186,-2.0,17.65,11111222 
TABS,ioos:station:wmo:42043:1,1999-02-14T04:30:00Z,28.9818,-94.9186,-2.0,17.64,11111222 
TABS,ioos:station:wmo:42043:1,1999-02-14T05:00:00Z,28.9818,-94.9186,-2.0,17.6,11111222 
TABS,ioos:station:wmo:42043:1,1999-02-14T05:30:00Z,28.9818,-94.9186,-2.0,17.57,11111222 
TABS,ioos:station:wmo:42043:1,1999-02-14T06:00:00Z,28.9818,-94.9186,-2.0,17.55,11111222 
TABS,ioos:station:wmo:42043:1,1999-02-15T01:30:00Z,28.9818,-94.9186,-2.0,17.78,11111222 
TABS,ioos:station:wmo:42043:1,1999-02-15T02:00:00Z,28.9818,-94.9186,-2.0,17.76,11111222 
TABS,ioos:station:wmo:42043:1,1999-02-15T02:30:00Z,28.9818,-94.9186,-2.0,17.77,11111222 
TABS,ioos:station:wmo:42043:1,1999-02-15T03:00:00Z,28.9818,-94.9186,-2.0,17.76,11111222 
TABS,ioos:station:wmo:42043:1,1999-02-15T03:30:00Z,28.9818,-94.9186,-2.0,17.78,11111222 
TABS,ioos:station:wmo:42043:1,1999-02-15T04:00:00Z,28.9818,-94.9186,-2.0,17.75,11111222 
TABS,ioos:station:wmo:42043:1,1999-02-15T04:30:00Z,28.9818,-94.9186,-2.0,17.75,11111222 
TABS,ioos:station:wmo:42043:1,1999-02-15T05:00:00Z,28.9818,-94.9186,-2.0,17.7,11111222 
TABS,ioos:station:wmo:42043:1,1999-02-15T05:30:00Z,28.9818,-94.9186,-2.0,17.74,11111222 
TABS,ioos:station:wmo:42043:1,1999-02-15T06:00:00Z,28.9818,-94.9186,-2.0,17.72,11111222 
TABS,ioos:station:wmo:42043:1,1999-02-15T06:30:00Z,28.9818,-94.9186,-2.0,17.71,11111222 
TABS,ioos:station:wmo:42043:1,1999-02-15T07:00:00Z,28.9818,-94.9186,-2.0,17.7,11111222 
TABS,ioos:station:wmo:42043:1,1999-02-15T07:30:00Z,28.9818,-94.9186,-2.0,17.73,11111222 
TABS,ioos:station:wmo:42043:1,1999-02-15T08:00:00Z,28.9818,-94.9186,-2.0,17.71,11111222 
TABS,ioos:station:wmo:42043:1,1999-02-15T08:30:00Z,28.9818,-94.9186,-2.0,17.64,11111222 
TABS,ioos:station:wmo:42043:1,1999-02-15T09:00:00Z,28.9818,-94.9186,-2.0,17.6,11111222 
TABS,ioos:station:wmo:42043:1,1999-02-15T09:30:00Z,28.9818,-94.9186,-2.0,17.62,11111222 
TABS,ioos:station:wmo:42043:1,1999-02-15T10:00:00Z,28.9818,-94.9186,-2.0,17.62,11111222 
TABS,ioos:station:wmo:42043:1,1999-02-15T10:30:00Z,28.9818,-94.9186,-2.0,17.61,11111222 
TABS,ioos:station:wmo:42043:1,1999-02-15T11:00:00Z,28.9818,-94.9186,-2.0,17.58,11111222 
TABS,ioos:station:wmo:42043:1,1999-02-15T11:30:00Z,28.9818,-94.9186,-2.0,17.57,11111222 
TABS,ioos:station:wmo:42043:1,1999-02-15T12:00:00Z,28.9818,-94.9186,-2.0,17.59,11111222 
TABS,ioos:station:wmo:42043:1,1999-02-15T12:30:00Z,28.9818,-94.9186,-2.0,17.54,11111222 
TABS,ioos:station:wmo:42043:1,1999-02-15T13:00:00Z,28.9818,-94.9186,-2.0,17.51,11111222 
TABS,ioos:station:wmo:42043:1,1999-02-15T13:30:00Z,28.9818,-94.9186,-2.0,17.52,11111222 
TABS,ioos:station:wmo:42043:1,1999-02-15T14:00:00Z,28.9818,-94.9186,-2.0,17.44,11111222 
TABS,ioos:station:wmo:42043:1,1999-02-15T14:30:00Z,28.9818,-94.9186,-2.0,17.4,11111222 
TABS,ioos:station:wmo:42043:1,1999-02-15T15:00:00Z,28.9818,-94.9186,-2.0,17.4,11111222 
TABS,ioos:station:wmo:42043:1,1999-02-15T15:30:00Z,28.9818,-94.9186,-2.0,17.42,11111222 
TABS,ioos:station:wmo:42043:1,1999-02-15T16:00:00Z,28.9818,-94.9186,-2.0,17.45,11111222 
TABS,ioos:station:wmo:42043:1,1999-02-15T16:30:00Z,28.9818,-94.9186,-2.0,17.43,11111222 
TABS,ioos:station:wmo:42043:1,1999-02-15T17:00:00Z,28.9818,-94.9186,-2.0,17.49,11111222 
TABS,ioos:station:wmo:42043:1,1999-02-15T17:30:00Z,28.9818,-94.9186,-2.0,17.49,11111222 
TABS,ioos:station:wmo:42043:1,1999-02-15T18:00:00Z,28.9818,-94.9186,-2.0,17.52,11111222 
TABS,ioos:station:wmo:42043:1,1999-02-15T18:30:00Z,28.9818,-94.9186,-2.0,17.59,11111222 
TABS,ioos:station:wmo:42043:1,1999-02-15T19:00:00Z,28.9818,-94.9186,-2.0,17.62,11111222 
TABS,ioos:station:wmo:42043:1,1999-02-15T19:30:00Z,28.9818,-94.9186,-2.0,17.66,11111222 
TABS,ioos:station:wmo:42043:1,1999-02-15T20:00:00Z,28.9818,-94.9186,-2.0,17.74,11111222 
TABS,ioos:station:wmo:42043:1,1999-02-15T20:30:00Z,28.9818,-94.9186,-2.0,17.78,11111222 
TABS,ioos:station:wmo:42043:1,1999-02-15T21:00:00Z,28.9818,-94.9186,-2.0,17.85,11111222 
TABS,ioos:station:wmo:42043:1,1999-02-15T21:30:00Z,28.9818,-94.9186,-2.0,17.85,11111222 
TABS,ioos:station:wmo:42043:1,1999-02-15T22:00:00Z,28.9818,-94.9186,-2.0,17.85,11111222 
TABS,ioos:station:wmo:42043:1,1999-02-15T22:30:00Z,28.9818,-94.9186,-2.0,17.8,11111222 
TABS,ioos:station:wmo:42043:1,1999-02-15T23:00:00Z,28.9818,-94.9186,-2.0,17.77,11111222 
TABS,ioos:station:wmo:42043:1,1999-02-15T23:30:00Z,28.9818,-94.9186,-2.0,17.75,11111222 
TABS,ioos:station:wmo:42043:1,1999-02-16T00:00:00Z,28.9818,-94.9186,-2.0,17.74,11111222 
TABS,ioos:station:wmo:42043:1,1999-02-16T00:30:00Z,28.9818,-94.9186,-2.0,17.72,11111222 
TABS,ioos:station:wmo:42043:1,1999-02-16T01:00:00Z,28.9818,-94.9186,-2.0,17.69,11111222 
TABS,ioos:station:wmo:42043:1,1999-02-16T02:00:00Z,28.9818,-94.9186,-2.0,17.64,11111222 
TABS,ioos:station:wmo:42043:1,1999-02-16T02:30:00Z,28.9818,-94.9186,-2.0,17.59,11111222 
TABS,ioos:station:wmo:42043:1,1999-02-16T03:00:00Z,28.9818,-94.9186,-2.0,17.55,11111222 
TABS,ioos:station:wmo:42043:1,1999-02-16T03:30:00Z,28.9818,-94.9186,-2.0,17.54,11111222 
TABS,ioos:station:wmo:42043:1,1999-02-16T04:00:00Z,28.9818,-94.9186,-2.0,17.55,11111222 
TABS,ioos:station:wmo:42043:1,1999-02-16T04:30:00Z,28.9818,-94.9186,-2.0,17.58,11111222 
TABS,ioos:station:wmo:42043:1,1999-02-16T05:00:00Z,28.9818,-94.9186,-2.0,17.58,11111222 
TABS,ioos:station:wmo:42043:1,1999-02-16T05:30:00Z,28.9818,-94.9186,-2.0,17.57,11111222 
TABS,ioos:station:wmo:42043:1,1999-02-16T06:00:00Z,28.9818,-94.9186,-2.0,17.56,11111222 
TABS,ioos:station:wmo:42043:1,1999-02-16T06:30:00Z,28.9818,-94.9186,-2.0,17.54,11111222 
TABS,ioos:station:wmo:42043:1,1999-02-16T07:00:00Z,28.9818,-94.9186,-2.0,17.51,11111222 
TABS,ioos:station:wmo:42043:1,1999-02-16T07:30:00Z,28.9818,-94.9186,-2.0,17.48,11111222 
TABS,ioos:station:wmo:42043:1,1999-02-16T08:00:00Z,28.9818,-94.9186,-2.0,17.47,11111222 
TABS,ioos:station:wmo:42043:1,1999-02-16T08:30:00Z,28.9818,-94.9186,-2.0,17.45,11111222 
TABS,ioos:station:wmo:42043:1,1999-02-16T09:00:00Z,28.9818,-94.9186,-2.0,17.41,11111222 
TABS,ioos:station:wmo:42043:1,1999-02-16T09:30:00Z,28.9818,-94.9186,-2.0,17.38,11111222 
TABS,ioos:station:wmo:42043:1,1999-02-16T10:00:00Z,28.9818,-94.9186,-2.0,17.35,11111222 
TABS,ioos:station:wmo:42043:1,1999-02-16T10:30:00Z,28.9818,-94.9186,-2.0,17.26,11111222 
TABS,ioos:station:wmo:42043:1,1999-02-16T11:00:00Z,28.9818,-94.9186,-2.0,17.22,11111222 
TABS,ioos:station:wmo:42043:1,1999-02-16T11:30:00Z,28.9818,-94.9186,-2.0,17.2,11111222 
TABS,ioos:station:wmo:42043:1,1999-02-16T12:00:00Z,28.9818,-94.9186,-2.0,17.2,11111222 
TABS,ioos:station:wmo:42043:1,1999-02-16T12:30:00Z,28.9818,-94.9186,-2.0,17.23,11111222 
TABS,ioos:station:wmo:42043:1,1999-02-16T13:00:00Z,28.9818,-94.9186,-2.0,17.22,11111222 
TABS,ioos:station:wmo:42043:1,1999-02-16T13:30:00Z,28.9818,-94.9186,-2.0,17.22,11111222 
TABS,ioos:station:wmo:42043:1,1999-02-16T14:00:00Z,28.9818,-94.9186,-2.0,18.76,11111222 
TABS,ioos:station:wmo:42043:1,1999-02-16T14:30:00Z,28.9818,-94.9186,-2.0,18.77,11111222 
TABS,ioos:station:wmo:42043:1,1999-02-16T15:00:00Z,28.9818,-94.9186,-2.0,18.68,11111222 
TABS,ioos:station:wmo:42043:1,1999-02-16T15:30:00Z,28.9818,-94.9186,-2.0,18.72,11111222 
TABS,ioos:station:wmo:42043:1,1999-02-16T16:00:00Z,28.9818,-94.9186,-2.0,18.82,11111222 
TABS,ioos:station:wmo:42043:1,1999-02-16T16:30:00Z,28.9818,-94.9186,-2.0,18.82,11111222 
TABS,ioos:station:wmo:42043:1,1999-02-16T17:00:00Z,28.9818,-94.9186,-2.0,18.85,11111222 
TABS,ioos:station:wmo:42043:1,1999-02-16T17:30:00Z,28.9818,-94.9186,-2.0,18.9,11111222 
TABS,ioos:station:wmo:42043:1,1999-02-16T18:00:00Z,28.9818,-94.9186,-2.0,18.9,11111222 
TABS,ioos:station:wmo:42043:1,1999-02-16T18:30:00Z,28.9818,-94.9186,-2.0,18.91,11111222 
TABS,ioos:station:wmo:42043:1,1999-02-16T19:00:00Z,28.9818,-94.9186,-2.0,19.08,11111222 
TABS,ioos:station:wmo:42043:1,1999-02-16T19:30:00Z,28.9818,-94.9186,-2.0,19.06,11111222 
TABS,ioos:station:wmo:42043:1,1999-02-16T20:00:00Z,28.9818,-94.9186,-2.0,19.25,11111222 
TABS,ioos:station:wmo:42043:1,1999-02-16T20:30:00Z,28.9818,-94.9186,-2.0,19.38,11111222 
TABS,ioos:station:wmo:42043:1,1999-02-16T21:00:00Z,28.9818,-94.9186,-2.0,19.48,11111222 
TABS,ioos:station:wmo:42043:1,1999-02-16T21:30:00Z,28.9818,-94.9186,-2.0,19.63,11111222 
TABS,ioos:station:wmo:42043:1,1999-02-16T22:00:00Z,28.9818,-94.9186,-2.0,19.58,11111222 
TABS,ioos:station:wmo:42043:1,1999-02-16T22:30:00Z,28.9818,-94.9186,-2.0,19.37,11111222 
TABS,ioos:station:wmo:42043:1,1999-02-16T23:00:00Z,28.9818,-94.9186,-2.0,19.29,11111222 
TABS,ioos:station:wmo:42043:1,1999-02-16T23:30:00Z,28.9818,-94.9186,-2.0,19.51,11111222 
TABS,ioos:station:wmo:42043:1,1999-02-17T00:00:00Z,28.9818,-94.9186,-2.0,19.68,11111222 
TABS,ioos:station:wmo:42043:1,1999-02-17T00:30:00Z,28.9818,-94.9186,-2.0,17.95,11111222 
TABS,ioos:station:wmo:42043:1,1999-02-17T01:00:00Z,28.9818,-94.9186,-2.0,17.71,11111222 
TABS,ioos:station:wmo:42043:1,1999-02-17T01:30:00Z,28.9818,-94.9186,-2.0,17.99,11111222 
TABS,ioos:station:wmo:42043:1,1999-02-17T02:00:00Z,28.9818,-94.9186,-2.0,18.03,11111222 
TABS,ioos:station:wmo:42043:1,1999-02-17T02:30:00Z,28.9818,-94.9186,-2.0,18.19,11111222 
TABS,ioos:station:wmo:42043:1,1999-02-17T03:00:00Z,28.9818,-94.9186,-2.0,18.21,11111222 
TABS,ioos:station:wmo:42043:1,1999-02-19T00:00:00Z,28.9818,-94.9186,-2.0,18.21,11111222 
TABS,ioos:station:wmo:42043:1,1999-02-20T00:00:00Z,28.9818,-94.9186,-2.0,18.21,11111222 
TABS,ioos:station:wmo:42043:1,1999-02-21T00:00:00Z,28.9818,-94.9186,-2.0,18.21,11111222 
TABS,ioos:station:wmo:42043:1,1999-02-22T05:30:00Z,28.9818,-94.9186,-2.0,17.79,11111222 
TABS,ioos:station:wmo:42043:1,1999-02-22T06:00:00Z,28.9818,-94.9186,-2.0,17.73,11111222 
TABS,ioos:station:wmo:42043:1,1999-02-22T06:30:00Z,28.9818,-94.9186,-2.0,17.7,11111222 
TABS,ioos:station:wmo:42043:1,1999-02-22T07:00:00Z,28.9818,-94.9186,-2.0,17.71,11111222 
TABS,ioos:station:wmo:42043:1,1999-02-22T07:30:00Z,28.9818,-94.9186,-2.0,17.69,11111222 
TABS,ioos:station:wmo:42043:1,1999-02-22T08:00:00Z,28.9818,-94.9186,-2.0,17.71,11111222 
TABS,ioos:station:wmo:42043:1,1999-02-22T08:30:00Z,28.9818,-94.9186,-2.0,17.65,11111222 
TABS,ioos:station:wmo:42043:1,1999-02-22T09:00:00Z,28.9818,-94.9186,-2.0,17.67,11111222 
TABS,ioos:station:wmo:42043:1,1999-02-22T09:30:00Z,28.9818,-94.9186,-2.0,17.68,11111222 
TABS,ioos:station:wmo:42043:1,1999-02-22T10:00:00Z,28.9818,-94.9186,-2.0,17.68,11111222 
TABS,ioos:station:wmo:42043:1,1999-02-22T10:30:00Z,28.9818,-94.9186,-2.0,17.67,11111222 
TABS,ioos:station:wmo:42043:1,1999-02-22T11:00:00Z,28.9818,-94.9186,-2.0,17.67,11111222 
TABS,ioos:station:wmo:42043:1,1999-02-22T11:30:00Z,28.9818,-94.9186,-2.0,17.64,11111222 
TABS,ioos:station:wmo:42043:1,1999-02-22T12:00:00Z,28.9818,-94.9186,-2.0,17.62,11111222 
TABS,ioos:station:wmo:42043:1,1999-02-22T12:30:00Z,28.9818,-94.9186,-2.0,17.64,11111222 
TABS,ioos:station:wmo:42043:1,1999-02-22T13:00:00Z,28.9818,-94.9186,-2.0,17.63,11111222 
TABS,ioos:station:wmo:42043:1,1999-02-22T13:30:00Z,28.9818,-94.9186,-2.0,17.63,11111222 
TABS,ioos:station:wmo:42043:1,1999-02-22T14:00:00Z,28.9818,-94.9186,-2.0,17.6,11111222 